Regional Weather Roundup
Issued by NWS

Home | Current Version | Previous Version | Graphics & Text | Print | Product List | Glossary On
Versions: 1 2 3 4 5 6 7 8 9 10 11 12 13 14 15 16 17 18 19 20 21 22 23 24 25 26 27 28 29 30 31 32 33 34 35 36 37 38 39 40 41 42 43 44 45 46 47 48 49 50
000
ASUS45 KTFX 220110
RWRMT
MONTANA REGIONAL WEATHER ROUNDUP
NATIONAL WEATHER SERVICE GREAT FALLS MT
600 PM MST TUE NOV 21 2017

NOTE: "FAIR" INDICATES FEW OR NO CLOUDS BELOW 12000 FEET WITH NO
SIGNIFICANT WEATHER AND/OR OBSTRUCTIONS TO VISIBILITY.

MTZ001>007-043-220200-
WEST OF THE DIVIDE

CITY           SKY/WX    TMP DP  RH WIND       PRES   REMARKS
KALISPELL      LGT RAIN  39  38  96 SW3       30.13F
MISSOULA       CLOUDY    36  36 100 CALM      30.20F
BUTTE          CLOUDY    35  29  78 VRB3      30.20S
MULLAN PASS    LGT RAIN  34  32  92 S8        30.11S VSB 1/4 WCI  27
ANACONDA         N/A     37  30  75 W5        30.16F
DEER LODGE       N/A     34  30  86 CALM      30.19S
EUREKA           N/A     41  36  81 MISG      30.10F
HAMILTON         N/A     37  34  87 CALM      30.19F
LIBBY            N/A     36  36 100 CALM      30.11F
PLAINS           N/A     37  34  89 MISG      30.15F
$$

MTZ008-052>055-220200-
SOUTHWEST MONTANA

CITY           SKY/WX    TMP DP  RH WIND       PRES   REMARKS
BOZEMAN        MIX PCPN  35  31  85 CALM      30.19F
DILLON         MOCLDY    42  34  73 S5        30.22S
W YELLOWSTONE  CLOUDY    34  34 100 CALM      30.33S
ENNIS          MIX PCPN  41  36  81 S17G23    30.27F
TWIN BRIDGES     N/A     41  30  65 CALM      30.17F
$$

MTZ009-010-012-014-046-048-049-054-220200-
EAST SLOPES AND CENTRAL MONTANA

CITY           SKY/WX    TMP DP  RH WIND       PRES   REMARKS
CUT BANK       FAIR      26  24  92 SE9       29.99F WCI  17
GREAT FALLS    MOCLDY    47  28  47 SW18      30.05F
MALMSTROM AFB  CLOUDY    41  36  81 S13       30.05F
HELENA         MOCLDY    37  32  82 CALM      30.15F
BOWMANS CRNR   MOCLDY    42  31  64 S22G29    30.05F
CHOTEAU          N/A     41  28  60 S9        30.02F
FAIRFIELD      MOCLDY    44  31  59 S17       30.02F
POWER          CLOUDY    43  29  58 S12       30.03F
RAYNESFORD     LGT RAIN  45  34  65 SW14      30.07F
ULM            MOCLDY    47  32  54 SW12      30.06F
$$

MTZ011-013-016-021-045-047-050-051-220200-
NORTH CENTRAL MONTANA

CITY           SKY/WX    TMP DP  RH WIND       PRES   REMARKS
HAVRE          FAIR      25  14  63 E9        30.06F WCI  15
LEWISTOWN      FAIR      40  27  59 SW12      30.06F
N BAR RANCH    FAIR      34  28  80 W8        30.09F WCI  27
CHINOOK          N/A     23  10  58 E7        30.09F WCI  15
DENTON         MOCLDY    28  26  91 MISG      30.03F
GEYSER         LGT RAIN  40  32  73 W12       30.06R
GRASS RANGE    MOCLDY    31  27  87 CALM      30.03F
STANFORD       LGT RAIN  44  35  70 W18       30.06F
WINIFRED       CLOUDY    26  24  92 E5        30.05F
$$

MTZ017>020-022>027-061-062-220200-
NORTHEAST MONTANA

CITY           SKY/WX    TMP DP  RH WIND       PRES   REMARKS
GLASGOW        FAIR      15   1  53 E12       30.16F WCI   2
GLENDIVE       FAIR      18   7  62 E6        30.22F WCI  10
JORDAN           N/A     25  19  78 SE5       30.14F
SIDNEY         FAIR      14   3  61 CALM      30.26F
WOLF POINT     FAIR      18   2  49 E6        30.22F WCI  10
MALTA          CLEAR     19   9  63 NE9       30.14F WCI   9
PLENTYWOOD       N/A     14   1  57 CALM      30.21F
POPLAR           N/A     19   0  42 SE3       30.23F
$$

MTZ028>42-056>058-220200-
SOUTHCENTRAL AND SOUTHEAST MONTANA

CITY           SKY/WX    TMP DP  RH WIND       PRES   REMARKS
BAKER          FAIR      18  14  84 SE5       30.22S
BILLINGS       MOCLDY    37  33  85 VRB5      30.13S
LIVINGSTON     CLOUDY    49  34  56 SW21G38   30.13F
MILES CITY     FAIR      23  18  81 NE6       30.17F WCI  16
BIG TIMBER     MOCLDY    48  32  53 W24       30.14F
FORSYTH          N/A     27  25  93 CALM      30.16F
HARLOWTON      MOCLDY    44  29  55 W29G38    30.09F
LAUREL           N/A     41  32  70 W8        30.14R
ROUNDUP          N/A     33  26  76 W2        30.01
$$

REGIONAL REPORTS...DAKOTAS

CITY           SKY/WX    TMP DP  RH WIND       PRES   REMARKS
WILLISTON      FAIR      10   0  63 CALM      30.27F
MINOT          FAIR      10   2  69 SW6       30.29F WCI   0
DICKINSON      FAIR       9   0  67 SE7       30.22F WCI  -2
BEACH          FAIR      12   5  73 S5        30.26S
CROSBY         FAIR       1  -2  85 SE3       30.26F
TIOGA          FAIR       3   0  85 CALM      30.25F
WATFORD CITY   FAIR       9   0  66 S3        30.27S
BISMARCK       FAIR      16   6  65 CALM      30.35F
GRAND FORKS    MOCLDY    16  11  80 W8        30.32F WCI   5
FARGO          FAIR      15   9  76 W10       30.37R WCI   2
BUFFALO SD       N/A     26  10  50 SE6       30.16F WCI  19
RAPID CITY     FAIR      23  17  78 S6        30.25F WCI  16
$$

REGIONAL REPORTS...WYOMING/IDAHO/WASHINGTON

CITY           SKY/WX    TMP DP  RH WIND       PRES   REMARKS
GILLETTE       FAIR      28  23  81 S9        30.17S WCI  19
SHERIDAN       FAIR      32  31  96 SW7       30.13F WCI  26
BUFFALO WY     FAIR      34  24  67 S7        30.15F WCI  28
CODY           MOCLDY    40  31  70 CALM      30.19R
YELLOWSTONE LA   N/A     32  32 100 CALM      30.37F
IDAHO FALLS    FOG       40  40 100 VRB3      30.36R VSB 1
SALMON         LGT RAIN  37  35  92 CALM      30.29S
BOISE          MOCLDY    53  48  83 SE9       30.24S
SPOKANE        LGT RAIN  39  39 100 NE7       30.07F VSB 1/4
$$

REGIONAL REPORTS...ALBERTA

CITY           SKY/WX    TMP DP  RH WIND       PRES   REMARKS
EDMONTON       CLEAR      9   0  66 SE9       29.98F WCI  -5
CALGARY        CLOUDY    16  10  79 S10       29.84F WCI   3
LETHBRIDGE     CLOUDY    23  19  86 S5        29.92F
MEDICINE HAT   CLOUDY    16  10  79 NE7       30.00F WCI   6
$$

REGIONAL REPORTS...SASKATCHEWAN

CITY           SKY/WX    TMP DP  RH WIND       PRES   REMARKS
SWIFT CURRENT  CLEAR     10   3  72 S14G20    30.05F WCI  -5
REGINA         PTCLDY    -4  -8  84 SE8       30.20F WCI -19
SASKATOON      PTCLDY    -6  -9  84 SW8       30.20F WCI -21
$$



USA.gov is the U.S. government's official web portal to all federal, state and local government web resources and services.